EW5962 Weather Reports


Display with metric or nautical units.
time (UTC)temp
F
wind
direction
speed
MPH
gust
MPH
rain 1hr
in
rain 24hr
in
rain mn
in
humidity
%
barometer
mb
20260503200606 68 186 0.0 3.0 0.00 0.00 0.00 29 1016.4
20260503200002 68 169 0.0 5.0 0.00 0.00 0.00 27 1016.5
20260503195508 69 143 1.0 5.0 0.00 0.00 0.00 27 1016.6
20260503195102 69 53 0.0 8.0 0.00 0.00 0.00 30 1016.7
20260503194503 68 173 0.0 9.0 0.00 0.00 0.00 30 1016.6
20260503194009 68 349 1.0 9.0 0.00 0.00 0.00 29 1016.8
20260503193602 68 179 0.0 5.0 0.00 0.00 0.00 29 1016.8
20260503193006 68 359 2.0 6.0 0.00 0.00 0.00 29 1016.8
20260503192512 68 168 2.0 6.0 0.00 0.00 0.00 29 1017.0
20260503192102 68 161 1.0 4.0 0.00 0.00 0.00 30 1017.0
20260503191502 67 309 0.0 7.0 0.00 0.00 0.00 30 1017.0
20260503191009 67 185 2.0 7.0 0.00 0.00 0.00 29 1017.1
20260503190604 67 197 0.0 5.0 0.00 0.00 0.00 31 1017.2
20260503190005 66 167 0.0 5.0 0.00 0.00 0.00 31 1017.3
20260503185508 66 299 0.0 4.0 0.00 0.00 0.00 29 1017.5
20260503185103 65 216 1.0 6.0 0.00 0.00 0.00 29 1017.5
20260503184503 65 203 2.0 6.0 0.00 0.00 0.00 30 1017.5
20260503184009 65 115 0.0 6.0 0.00 0.00 0.00 30 1017.5
20260503183602 65 20 1.0 7.0 0.00 0.00 0.00 31 1017.6
20260503183002 65 122 1.0 7.0 0.00 0.00 0.00 32 1017.8
20260503182513 64 227 0.0 5.0 0.00 0.00 0.00 31 1017.7
20260503182102 64 25 0.0 1.0 0.00 0.00 0.00 32 1017.7
20260503181505 64 134 0.0 1.0 0.00 0.00 0.00 34 1018.0
20260503181010 64 184 0.0 8.0 0.00 0.00 0.00 33 1018.0
20260503180602 64 201 0.0 10.0 0.00 0.00 0.00 30 1018.0
20260503180003 64 186 0.0 5.0 0.00 0.00 0.00 33 1018.1
20260503175507 64 160 0.0 4.0 0.00 0.00 0.00 32 1018.1
20260503175104 64 76 0.0 1.0 0.00 0.00 0.00 32 1018.2
20260503174504 64 302 0.0 6.0 0.00 0.00 0.00 34 1018.3
20260503174010 64 161 0.0 1.0 0.00 0.00 0.00 33 1018.3
20260503173602 64 72 0.0 1.0 0.00 0.00 0.00 34 1018.3
20260503173008 64 290 0.0 4.0 0.00 0.00 0.00 34 1018.5
20260503172509 64 3 0.0 4.0 0.00 0.00 0.00 33 1018.3
20260503172105 64 342 0.0 1.0 0.00 0.00 0.00 33 1018.5
20260503171503 64 34 0.0 6.0 0.00 0.00 0.00 34 1018.7
20260503171008 64 35 0.0 1.0 0.00 0.00 0.00 32 1018.7
20260503170603 63 72 0.0 3.0 0.00 0.00 0.00 33 1018.8
20260503151008 57 7 0.0 5.0 0.00 0.00 0.00 40 1019.8
20260503150601 57 349 0.0 5.0 0.00 0.00 0.00 42 1019.7
20260503131009 45 104 0.0 1.0 0.00 0.00 0.00 78 1019.4
20260503130602 44 23 0.0 1.0 0.00 0.00 0.00 81 1019.4
20260503110603 32 221 0.0 0.0 0.00 0.00 0.00 94 1018.6
20260503081503 35 221 0.0 0.0 0.00 0.00 0.00 93 1016.5
20260503081009 35 221 0.0 0.0 0.00 0.00 0.00 93 1016.5
20260503080605 35 221 0.0 0.0 0.00 0.00 0.00 93 1016.5
20260503072512 35 221 0.0 0.0 0.00 0.00 0.00 92 1015.8
20260503072104 35 221 0.0 0.0 0.00 0.00 0.00 92 1015.8
20260503071504 36 221 0.0 0.0 0.00 0.00 0.00 92 1015.7
20260503071009 36 221 0.0 0.0 0.00 0.00 0.00 92 1015.7
20260503070604 36 221 0.0 0.0 0.00 0.00 0.00 92 1015.7
20260503055103 37 221 0.0 0.0 0.00 0.00 0.00 91 1015.3
20260503054508 37 221 0.0 0.0 0.00 0.00 0.00 91 1015.3
20260503054009 37 221 0.0 0.0 0.00 0.00 0.00 91 1015.3
20260503053604 37 221 0.0 0.0 0.00 0.00 0.00 91 1015.3
20260503053007 38 221 0.0 0.0 0.00 0.00 0.00 91 1015.2
20260503052509 38 221 0.0 0.0 0.00 0.00 0.00 91 1015.2
20260503052104 38 221 0.0 0.0 0.00 0.00 0.00 91 1015.2
20260503051504 38 221 0.0 0.0 0.00 0.00 0.00 91 1015.3
20260503051010 38 221 0.0 0.0 0.00 0.00 0.00 91 1015.2
20260503050605 38 221 0.0 0.0 0.00 0.00 0.00 91 1015.2
20260503050003 39 221 0.0 0.0 0.00 0.00 0.00 91 1015.2
20260503045509 39 221 0.0 0.0 0.00 0.00 0.00 90 1015.2
20260503045104 39 221 0.0 0.0 0.00 0.00 0.00 90 1015.2
20260503044504 39 221 0.0 0.0 0.00 0.00 0.00 90 1015.1
20260503044011 39 221 0.0 0.0 0.00 0.00 0.00 90 1015.0
20260503043603 39 221 0.0 0.0 0.00 0.00 0.00 90 1015.0
20260503043003 39 221 0.0 0.0 0.00 0.00 0.00 90 1014.9
20260503042509 40 221 0.0 0.0 0.00 0.00 0.00 90 1014.9
20260503042104 40 221 0.0 0.0 0.00 0.00 0.00 90 1014.9
20260503041503 40 221 0.0 0.0 0.00 0.00 0.00 90 1014.8
20260503041004 40 221 0.0 0.0 0.00 0.00 0.00 90 1014.7
20260503040606 40 221 0.0 0.0 0.00 0.00 0.00 90 1014.6
20260503040003 40 221 0.0 0.0 0.00 0.00 0.00 90 1014.5
20260503035510 41 221 0.0 0.0 0.00 0.00 0.00 90 1014.5
20260503035104 41 221 0.0 0.0 0.00 0.00 0.00 90 1014.5
20260503034504 41 221 0.0 0.0 0.00 0.00 0.00 89 1014.5
20260503034012 41 221 0.0 0.0 0.00 0.00 0.00 89 1014.5
20260503033604 41 221 0.0 0.0 0.00 0.00 0.00 89 1014.5
20260503033005 42 221 0.0 0.0 0.00 0.00 0.00 89 1014.5
20260503032509 42 221 0.0 0.0 0.00 0.00 0.00 88 1014.5
20260503032106 42 221 0.0 0.0 0.00 0.00 0.00 88 1014.4
20260503031504 42 221 0.0 0.0 0.00 0.00 0.00 88 1014.2
20260503031010 42 221 0.0 0.0 0.00 0.00 0.00 88 1014.2
20260503030602 43 221 0.0 0.0 0.00 0.00 0.00 88 1014.2
20260503030004 43 221 0.0 0.0 0.00 0.00 0.00 88 1014.2
20260503025509 43 221 0.0 0.0 0.00 0.00 0.00 87 1014.1
20260503025104 43 221 0.0 0.0 0.00 0.00 0.00 87 1014.2
20260503024504 43 221 0.0 0.0 0.00 0.00 0.00 87 1014.1
20260503024010 44 221 0.0 0.0 0.00 0.00 0.00 87 1014.2
20260503023604 44 221 0.0 0.0 0.00 0.00 0.00 87 1014.2
20260503023011 44 221 0.0 0.0 0.00 0.00 0.00 87 1014.0
20260503022510 44 221 0.0 0.0 0.00 0.00 0.00 87 1014.0
20260503022103 44 221 0.0 0.0 0.00 0.00 0.00 86 1014.0
20260503021504 45 221 0.0 0.0 0.00 0.00 0.00 86 1014.0
20260503021010 45 221 0.0 0.0 0.00 0.00 0.00 86 1013.9
20260503020604 45 221 0.0 0.0 0.00 0.00 0.00 85 1013.9
20260503020005 45 221 0.0 0.0 0.00 0.00 0.00 85 1013.9
20260503015510 46 221 0.0 0.0 0.00 0.00 0.00 84 1013.9
20260503015103 46 221 0.0 0.0 0.00 0.00 0.00 84 1013.7
20260503014507 46 221 0.0 0.0 0.00 0.00 0.00 83 1013.5
20260503014010 46 221 0.0 0.0 0.00 0.00 0.00 83 1013.4
20260503013603 47 221 0.0 0.0 0.00 0.00 0.00 82 1013.3
20260503013003 47 221 0.0 0.0 0.00 0.00 0.00 81 1013.1
20260503012511 48 221 0.0 0.0 0.00 0.00 0.00 80 1013.1
20260503012104 48 221 0.0 0.0 0.00 0.00 0.00 79 1013.0
20260503011506 48 221 0.0 1.0 0.00 0.00 0.00 79 1012.9
20260503011009 49 221 0.0 0.0 0.00 0.00 0.00 77 1012.9
20260503010603 49 221 0.0 0.0 0.00 0.00 0.00 76 1012.7
20260503010004 50 221 0.0 0.0 0.00 0.00 0.00 76 1012.6
20260503005510 50 221 0.0 0.0 0.00 0.00 0.00 75 1012.5
20260503005105 50 221 0.0 0.0 0.00 0.00 0.00 73 1012.5
20260503004507 51 221 0.0 0.0 0.00 0.00 0.00 73 1012.4
20260503004009 51 221 0.0 0.0 0.00 0.00 0.00 72 1012.3
20260503003603 52 221 0.0 0.0 0.00 0.00 0.00 71 1012.2
20260503003002 52 221 0.0 0.0 0.00 0.00 0.00 68 1012.1
20260503002516 53 221 0.0 0.0 0.00 0.00 0.00 68 1012.1
20260503002104 53 221 0.0 0.0 0.00 0.00 0.00 68 1012.1
20260503001505 54 221 0.0 0.0 0.00 0.00 0.00 68 1011.9
20260503001009 54 221 0.0 0.0 0.00 0.00 0.00 65 1011.9
20260503000604 54 221 0.0 0.0 0.00 0.00 0.00 64 1011.9
20260503000003 54 221 0.0 0.0 0.00 0.00 0.00 64 1011.8
20260502235509 55 221 0.0 0.0 0.00 0.00 0.00 63 1011.9
20260502235103 55 221 0.0 0.0 0.00 0.00 0.00 63 1011.8
20260502234504 55 221 0.0 0.0 0.00 0.00 0.00 63 1011.6
20260502234010 55 221 0.0 0.0 0.00 0.00 0.00 60 1011.5
20260502233603 55 221 0.0 0.0 0.00 0.00 0.00 62 1011.5
20260502233004 55 221 0.0 0.0 0.00 0.00 0.00 63 1011.3
20260502232509 56 221 0.0 0.0 0.00 0.00 0.00 64 1011.3
20260502232103 56 221 0.0 0.0 0.00 0.00 0.00 61 1011.2
20260502231503 56 221 0.0 0.0 0.00 0.00 0.00 59 1011.1
20260502231010 56 221 0.0 0.0 0.00 0.00 0.00 58 1011.0
20260502230604 57 221 0.0 0.0 0.00 0.00 0.00 56 1010.9
20260502230004 57 221 0.0 0.0 0.00 0.00 0.00 53 1011.0
20260502225510 57 221 0.0 0.0 0.00 0.00 0.00 53 1010.9
20260502225104 57 221 0.0 0.0 0.00 0.00 0.00 53 1010.9
20260502224503 57 221 0.0 0.0 0.00 0.00 0.00 48 1010.8
20260502224010 57 221 0.0 0.0 0.00 0.00 0.00 50 1010.8
20260502223604 58 221 0.0 0.0 0.00 0.00 0.00 49 1010.8
20260502223003 58 221 0.0 0.0 0.00 0.00 0.00 49 1010.9
20260502222510 58 221 0.0 0.0 0.00 0.00 0.00 49 1010.8
20260502222104 58 221 0.0 0.0 0.00 0.00 0.00 49 1010.7
20260502221503 58 221 0.0 0.0 0.00 0.00 0.00 47 1010.6
20260502221010 58 221 0.0 0.0 0.00 0.00 0.00 50 1010.6
20260502220604 58 221 0.0 0.0 0.00 0.00 0.00 47 1010.6
20260502220003 58 221 0.0 0.0 0.00 0.00 0.00 46 1010.4
20260502215509 59 221 0.0 0.0 0.00 0.00 0.00 44 1010.5
20260502215102 59 221 0.0 2.0 0.00 0.00 0.00 45 1010.4
20260502214504 59 206 0.0 2.0 0.00 0.00 0.00 41 1010.5
20260502214009 60 186 0.0 1.0 0.00 0.00 0.00 47 1010.4
20260502213604 60 186 0.0 1.0 0.00 0.00 0.00 45 1010.4
20260502213003 60 254 0.0 2.0 0.00 0.00 0.00 44 1010.4
20260502212509 60 343 0.0 2.0 0.00 0.00 0.00 45 1010.3
20260502212104 60 340 0.0 1.0 0.00 0.00 0.00 43 1010.3
20260502211504 61 167 0.0 1.0 0.00 0.00 0.00 45 1010.3
20260502211009 61 167 0.0 1.0 0.00 0.00 0.00 42 1010.3
20260502210604 61 167 0.0 1.0 0.00 0.00 0.00 40 1010.3
20260502210004 61 164 0.0 0.0 0.00 0.00 0.00 42 1010.3
20260502205512 60 164 0.0 0.0 0.00 0.00 0.00 40 1010.3
20260502205105 60 164 0.0 0.0 0.00 0.00 0.00 42 1010.4
20260502204503 60 273 0.0 0.0 0.00 0.00 0.00 41 1010.4
20260502204009 59 347 0.0 0.0 0.00 0.00 0.00 40 1010.4
20260502203603 59 198 0.0 0.0 0.00 0.00 0.00 48 1010.5
20260502203009 59 41 0.0 0.0 0.00 0.00 0.00 43 1010.5
20260502202508 59 3 0.0 0.0 0.00 0.00 0.00 42 1010.5
20260502202102 59 62 0.0 0.0 0.00 0.00 0.00 41 1010.6
20260502201503 59 34 0.0 0.0 0.00 0.00 0.00 39 1010.6
20260502201011 59 251 0.0 0.0 0.00 0.00 0.00 43 1010.6